User: anonymous   Login
Location: Pacheco
(37.9835°N, 122.0752°W)
Time: 11:33:48
(UTC+00:00)
Language:

ATLAS 2AS CENTAUR R/B - Orbit

View from above orbital plane
View from above orbital plane
View from above satellite
View from above satellite

Ground track
Ground track

The orbit data is extracted from the following two-line orbital elements,

1 28096U 03054B   24171.93584415 -.00000045  00000-0  74176-4 0  9990
2 28096  63.6797  71.1228 0117712 169.1654 191.1950 13.40975521  4891
Epoch (UTC): 19 June 2024 22:27:36
Eccentricity: 0.0117712
inclination: 63.6797°
perigee height: 1017 km
apogee height: 1194 km
right ascension of ascending node: 71.1228°
argument of perigee: 169.1654°
revolutions per day: 13.40975521
mean anomaly at epoch: 191.1950°
orbit number at epoch: 489

The dashed part of the orbit path shows where the satellite is in the earth's shadow,  

DLR